• In Germany
  • List of Countries
  • For 7 days
  • Water Temperature
  • Satellite Maps
  • Weather Map
  • Weather Widgets
  • user-avatar
    Login

    Hourly Weather Berat

    Today, 25 July, Tuesday

    Time Temperature Precipitation Wind Pressure Humidity
    00:00 +26°C° 0 mm 4 mps 738 mmHg 55%
    01:00 +26°C° 0 mm 5 mps 738 mmHg 59%
    02:00 +25°C° 0 mm 4 mps 738 mmHg 62%
    03:00 +23°C° 0 mm 4 mps 737 mmHg 64%
    04:00 +24°C° 0 mm 3 mps 737 mmHg 66%
    05:00 +25°C° 0 mm 3 mps 737 mmHg 63%
    06:00 +26°C° 0 mm 3 mps 737 mmHg 60%
    07:00 +28°C° 0 mm 3 mps 737 mmHg 56%
    08:00 +29°C° 0 mm 3 mps 737 mmHg 51%
    09:00 +30°C° 0 mm 4 mps 737 mmHg 46%
    10:00 +32°C° 0 mm 4 mps 737 mmHg 40%
    11:00 +33°C° 0 mm 4 mps 737 mmHg 38%
    12:00 +33°C° 0 mm 5 mps 737 mmHg 35%
    13:00 +34°C° 0 mm 5 mps 737 mmHg 34%
    14:00 +34°C° 0 mm 5 mps 737 mmHg 36%
    15:00 +33°C° 0 mm 5 mps 737 mmHg 38%
    16:00 +33°C° 0 mm 5 mps 737 mmHg 40%
    17:00 +30°C° 0 mm 4 mps 737 mmHg 47%
    18:00 +28°C° 0 mm 3 mps 737 mmHg 53%
    19:00 +27°C° 0 mm 2 mps 737 mmHg 60%
    20:00 +26°C° 0.1 mm 2 mps 737 mmHg 63%
    21:00 +25°C° 0.1 mm 2 mps 737 mmHg 66%
    22:00 +24°C° 0.1 mm 2 mps 737 mmHg 70%
    23:00 +23°C° 0 mm 2 mps 737 mmHg 71%

    Tomorrow, 26 July, Wednesday

    Time Temperature Precipitation Wind Pressure Humidity
    00:00 +23°C° 0 mm 2 mps 737 mmHg 72%
    01:00 +23°C° 0 mm 2 mps 737 mmHg 73%
    02:00 +21°C° 0 mm 2 mps 737 mmHg 73%
    03:00 +21°C° 0 mm 2 mps 737 mmHg 74%
    04:00 +21°C° 0 mm 2 mps 737 mmHg 74%
    05:00 +23°C° 0 mm 2 mps 737 mmHg 69%
    06:00 +25°C° 0 mm 2 mps 737 mmHg 64%
    07:00 +27°C° 0 mm 2 mps 737 mmHg 59%
    08:00 +28°C° 0.1 mm 3 mps 737 mmHg 55%
    09:00 +29°C° 0.1 mm 3 mps 737 mmHg 51%
    10:00 +30°C° 0.1 mm 4 mps 737 mmHg 46%
    11:00 +30°C° 0.1 mm 4 mps 737 mmHg 47%
    12:00 +30°C° 0.1 mm 4 mps 737 mmHg 49%
    13:00 +30°C° 0.1 mm 4 mps 737 mmHg 50%
    14:00 +29°C° 0.2 mm 4 mps 737 mmHg 51%
    15:00 +29°C° 0.2 mm 4 mps 736 mmHg 51%
    16:00 +29°C° 0.2 mm 4 mps 736 mmHg 52%
    17:00 +27°C° 0.1 mm 3 mps 736 mmHg 58%
    18:00 +26°C° 0.1 mm 2 mps 737 mmHg 64%
    19:00 +24°C° 0.1 mm 2 mps 737 mmHg 70%
    20:00 +23°C° 0 mm 2 mps 737 mmHg 73%
    21:00 +22°C° 0 mm 1 mps 738 mmHg 77%
    22:00 +21°C° 0 mm 1 mps 738 mmHg 81%
    23:00 +21°C° 0 mm 1 mps 738 mmHg 81%

    Day after tomorrow, 27 July, Thursday

    Time Temperature Precipitation Wind Pressure Humidity
    00:00 +21°C° 0 mm 1 mps 738 mmHg 82%
    01:00 +21°C° 0 mm 1 mps 738 mmHg 82%
    02:00 +20°C° 0.1 mm 1 mps 738 mmHg 83%
    03:00 +20°C° 0.1 mm 1 mps 738 mmHg 83%
    04:00 +20°C° 0.1 mm 1 mps 738 mmHg 83%
    05:00 +21°C° 0.1 mm 1 mps 738 mmHg 77%
    06:00 +23°C° 0.1 mm 1 mps 738 mmHg 71%
    07:00 +24°C° 0.1 mm 1 mps 739 mmHg 66%
    08:00 +26°C° 0 mm 2 mps 739 mmHg 60%
    09:00 +27°C° 0 mm 3 mps 739 mmHg 54%
    10:00 +28°C° 0 mm 3 mps 739 mmHg 48%
    11:00 +29°C° 0.4 mm 4 mps 739 mmHg 47%
    12:00 +29°C° 0.4 mm 4 mps 739 mmHg 46%
    13:00 +30°C° 0.4 mm 5 mps 739 mmHg 45%
    14:00 +29°C° 0.4 mm 5 mps 739 mmHg 47%
    15:00 +29°C° 0.4 mm 5 mps 739 mmHg 49%
    16:00 +29°C° 0.4 mm 5 mps 739 mmHg 52%
    17:00 +27°C° 0.1 mm 4 mps 739 mmHg 58%
    18:00 +25°C° 0.1 mm 3 mps 740 mmHg 64%
    19:00 +24°C° 0.1 mm 2 mps 740 mmHg 71%
    20:00 +23°C° 0 mm 2 mps 741 mmHg 74%
    21:00 +22°C° 0 mm 1 mps 741 mmHg 78%
    22:00 +21°C° 0 mm 1 mps 741 mmHg 81%
    23:00 +21°C° 0 mm 1 mps 742 mmHg 80%

    28 July, Friday

    Time Temperature Precipitation Wind Pressure Humidity
    00:00 +21°C° 0 mm 1 mps 742 mmHg 80%
    01:00 +20°C° 0 mm 1 mps 742 mmHg 79%
    02:00 +20°C° 0 mm 1 mps 742 mmHg 77%
    03:00 +20°C° 0 mm 1 mps 742 mmHg 76%
    04:00 +20°C° 0 mm 1 mps 742 mmHg 75%
    05:00 +22°C° 0 mm 1 mps 743 mmHg 70%
    06:00 +24°C° 0 mm 1 mps 743 mmHg 65%
    07:00 +25°C° 0 mm 1 mps 743 mmHg 60%
    08:00 +27°C° 0 mm 1 mps 743 mmHg 52%
    09:00 +29°C° 0 mm 2 mps 744 mmHg 45%
    10:00 +31°C° 0 mm 2 mps 744 mmHg 38%
    11:00 +33°C° 0 mm 3 mps 744 mmHg 36%
    12:00 +33°C° 0 mm 3 mps 744 mmHg 34%
    13:00 +34°C° 0 mm 4 mps 744 mmHg 32%
    14:00 +34°C° 0 mm 4 mps 743 mmHg 33%
    15:00 +34°C° 0 mm 4 mps 743 mmHg 34%
    16:00 +34°C° 0 mm 4 mps 743 mmHg 35%
    17:00 +30°C° 0 mm 3 mps 743 mmHg 41%
    18:00 +28°C° 0 mm 3 mps 744 mmHg 48%
    19:00 +26°C° 0 mm 2 mps 744 mmHg 54%
    20:00 +25°C° 0 mm 2 mps 744 mmHg 55%
    21:00 +24°C° 0 mm 1 mps 745 mmHg 57%
    22:00 +23°C° 0 mm 1 mps 745 mmHg 58%
    23:00 +23°C° 0 mm 1 mps 745 mmHg 57%

    29 July, Saturday

    Time Temperature Precipitation Wind Pressure Humidity
    00:00 +23°C° 0 mm 1 mps 745 mmHg 57%
    01:00 +23°C° 0 mm 1 mps 746 mmHg 56%
    02:00 +22°C° 0 mm 1 mps 746 mmHg 55%
    03:00 +22°C° 0 mm 1 mps 746 mmHg 55%
    04:00 +22°C° 0 mm 1 mps 746 mmHg 54%
    05:00 +24°C° 0 mm 1 mps 746 mmHg 51%
    06:00 +26°C° 0 mm 1 mps 746 mmHg 47%
    07:00 +28°C° 0 mm 1 mps 746 mmHg 43%
    08:00 +30°C° 0 mm 1 mps 747 mmHg 39%
    09:00 +32°C° 0 mm 1 mps 747 mmHg 35%
    10:00 +35°C° 0 mm 1 mps 747 mmHg 31%
    11:00 +36°C° 0 mm 2 mps 747 mmHg 29%
    12:00 +37°C° 0 mm 2 mps 747 mmHg 28%
    13:00 +38°C° 0 mm 3 mps 746 mmHg 26%
    14:00 +37°C° 0 mm 3 mps 746 mmHg 28%
    15:00 +37°C° 0 mm 3 mps 746 mmHg 29%
    16:00 +36°C° 0 mm 3 mps 746 mmHg 30%
    17:00 +34°C° 0 mm 3 mps 746 mmHg 35%
    18:00 +31°C° 0 mm 2 mps 746 mmHg 41%
    19:00 +28°C° 0 mm 1 mps 746 mmHg 46%
    20:00 +27°C° 0 mm 1 mps 746 mmHg 47%
    21:00 +27°C° 0 mm 1 mps 747 mmHg 48%
    22:00 +26°C° 0 mm 1 mps 747 mmHg 49%
    23:00 +26°C° 0 mm 1 mps 747 mmHg 49%

    30 July, Sunday

    Time Temperature Precipitation Wind Pressure Humidity
    00:00 +26°C° 0 mm 1 mps 747 mmHg 49%
    01:00 +26°C° 0 mm 1 mps 747 mmHg 49%
    02:00 +25°C° 0 mm 1 mps 746 mmHg 50%
    03:00 +25°C° 0 mm 1 mps 746 mmHg 51%
    04:00 +25°C° 0 mm 1 mps 746 mmHg 52%
    05:00 +27°C° 0 mm 1 mps 746 mmHg 50%
    06:00 +28°C° 0 mm 1 mps 747 mmHg 47%
    07:00 +30°C° 0 mm 1 mps 747 mmHg 45%
    08:00 +32°C° 0 mm 1 mps 747 mmHg 40%
    09:00 +34°C° 0 mm 1 mps 747 mmHg 36%
    10:00 +36°C° 0 mm 1 mps 747 mmHg 32%
    11:00 +37°C° 0 mm 2 mps 746 mmHg 31%
    12:00 +38°C° 0 mm 3 mps 746 mmHg 30%
    13:00 +39°C° 0 mm 3 mps 746 mmHg 29%
    14:00 +38°C° 0 mm 3 mps 745 mmHg 30%
    15:00 +37°C° 0 mm 3 mps 745 mmHg 32%
    16:00 +36°C° 0 mm 3 mps 745 mmHg 34%
    17:00 +34°C° 0 mm 3 mps 745 mmHg 38%
    18:00 +31°C° 0 mm 2 mps 745 mmHg 41%
    19:00 +29°C° 0 mm 2 mps 745 mmHg 45%
    20:00 +28°C° 0 mm 1 mps 745 mmHg 47%
    21:00 +28°C° 0 mm 1 mps 746 mmHg 48%
    22:00 +27°C° 0 mm 1 mps 746 mmHg 50%
    23:00 +27°C° 0 mm 1 mps 746 mmHg 51%
    Show more